Showing default

COSMOS 2166, 21780

Orbit data source: Space-Track

COSMOS 2166, 21780 is a payload satellite owned by UNKS RF (CIS) in LEO that was launched on Tue, 12 Nov 1991 UTC via a TSIKLON-3 launch vehicle from the Plesetsk Missile And Space Complex (PKMTR). Payload-class satellites include a variety of spacecraft equipped with specific instruments for various scientific and technological missions. These include communications satellites like Starlink; space stations such as the ISS; scientific satellites like the Hubble; Earth observation satellites from companies like Planet Labs, Umbra, and HawkEye 360; GPS; miniature CubeSats for education and research; and military/defense satellites.

Loading next visibility...
Identifier
21780, 1991-077B
Orbit
LEO
Country
Flag of CISCIS
Related business
Manufacturer
NPO PM
Mission
Defense Communications
Bus & Motor
STRELA-3, Unknown motor
Mass
225 kg wet, 225 kg dry
Launch date (UTC)
1991-11-12 (34 years ago)
Launch vehicle
TSIKLON-3
Launch site
Plesetsk Missile And Space Complex (PKMTR)
Object type
Payload
Rocket body
Debris
Shape & HBR
Cyl, 0.8 m
Radar Cross Section
1.257 m², Large (>1 m²)

Expand to show TLE details & history
Last TLE update: 23 hours ago

TLE from 23 hours ago
0 COSMOS 2166
1 21780U 91077B   26125.66394856  .00000029  00000-0  10130-3 0  9994
2 21780  82.5966 273.4169 0002529 245.2701 125.9865 12.63447883589809
Epoch: 2026-05-05T15:56Z
TLE epoch observation values (Epoch: 2026-05-05T15:56:05.155Z)
Latitude
11.13998°
Longitude
172.31881°
Altitude
1,411.886 km
Speed
7.155 km/s
True Right ascension
18h 19m 30s
True Declination
11° 04' 50"
Sunlit
Object was in daylight at epoch
Visualization orbit readout
Latitude
Unknown
Longitude
Unknown
Altitude
Unknown
Speed
Unknown
Apparent Right ascension
Unknown
Apparent Declination
Unknown
Sunlit
N/A
Visualization observer readout
Local Sidereal Time
22:23:42
Azimuth
Unknown
Elevation
Unknown
Doppler factor
Unknown
Orbital elements
Apogee altitude
1,408.032 km
Perigee altitude
1,404.095 km
Semi-major axis
7,784.201 km
Eccentricity
0.00025
Inclination
82.5966°
RAAN
273.4169°
Arg. of periapsis
245.2701°
True anomaly
126.00995°
Mean anomaly
125.9865°
Eccentric anomaly
125.99822°
Mean motion
3.16025 °/min
Orbital period
113.91 mins
BSTAR
0.0001013
Loading maneuver chart data...
Computing Atmospheric mass density...
Loading historical data...
Loading historical data...
Loading historical data...
Loading historical data...
Loading historical data...
Loading historical data...
Loading historical data...

Documentation

Showing up to 5 results
|